When you browse on this site, cookies collect data to enhance your experience and personalize the content and advertising you see.
Visit our Privacy Policy to learn more. By continuing to use the site, you agree to this use of cookies and data.
EN

Hourly Weather Berlin

Today, 2 July, Thursday

Time Temperature Precipitation Wind Pressure Humidity
00:00 +18°C° 0 mm 3 mps 752 mmHg 89%
01:00 +17°C° 0 mm 3 mps 752 mmHg 89%
02:00 +17°C° 0 mm 2 mps 752 mmHg 90%
03:00 +16°C° 0 mm 2 mps 752 mmHg 91%
04:00 +16°C° 0 mm 2 mps 752 mmHg 92%
05:00 +17°C° 0 mm 3 mps 753 mmHg 87%
06:00 +17°C° 0 mm 3 mps 753 mmHg 83%
07:00 +19°C° 0 mm 2 mps 753 mmHg 80%
08:00 +20°C° 0 mm 3 mps 753 mmHg 72%
09:00 +21°C° 0 mm 3 mps 753 mmHg 64%
10:00 +22°C° 0 mm 4 mps 753 mmHg 56%
11:00 +23°C° 0 mm 4 mps 753 mmHg 53%
12:00 +25°C° 0 mm 4 mps 753 mmHg 49%
13:00 +26°C° 0 mm 4 mps 753 mmHg 46%
14:00 +26°C° 0 mm 4 mps 753 mmHg 46%
15:00 +26°C° 0 mm 4 mps 753 mmHg 47%
16:00 +26°C° 0 mm 4 mps 753 mmHg 47%
17:00 +25°C° 0.1 mm 3 mps 753 mmHg 53%
18:00 +24°C° 0.1 mm 3 mps 753 mmHg 58%
19:00 +23°C° 0.1 mm 2 mps 753 mmHg 64%
20:00 +21°C° 0 mm 2 mps 753 mmHg 68%
21:00 +21°C° 0 mm 1 mps 753 mmHg 72%
22:00 +20°C° 0 mm 1 mps 753 mmHg 76%
23:00 +18°C° 0.3 mm 2 mps 754 mmHg 79%

Tomorrow, 3 July, Friday

Time Temperature Precipitation Wind Pressure Humidity
00:00 +18°C° 0.3 mm 2 mps 754 mmHg 82%
01:00 +18°C° 0.3 mm 3 mps 754 mmHg 86%
02:00 +17°C° 0.3 mm 3 mps 754 mmHg 87%
03:00 +17°C° 0.3 mm 3 mps 755 mmHg 88%
04:00 +16°C° 0.3 mm 3 mps 755 mmHg 90%
05:00 +17°C° 0 mm 4 mps 755 mmHg 86%
06:00 +16°C° 0 mm 5 mps 756 mmHg 83%
07:00 +16°C° 0 mm 5 mps 756 mmHg 80%
08:00 +17°C° 0 mm 5 mps 757 mmHg 74%
09:00 +19°C° 0 mm 5 mps 757 mmHg 69%
10:00 +20°C° 0 mm 4 mps 757 mmHg 63%
11:00 +21°C° 0 mm 4 mps 757 mmHg 58%
12:00 +22°C° 0 mm 5 mps 757 mmHg 54%
13:00 +23°C° 0 mm 5 mps 757 mmHg 49%
14:00 +25°C° 0 mm 5 mps 757 mmHg 49%
15:00 +25°C° 0 mm 4 mps 757 mmHg 48%
16:00 +25°C° 0 mm 4 mps 757 mmHg 47%
17:00 +23°C° 0 mm 4 mps 757 mmHg 52%
18:00 +24°C° 0 mm 3 mps 757 mmHg 56%
19:00 +22°C° 0 mm 3 mps 757 mmHg 60%
20:00 +21°C° 0 mm 3 mps 757 mmHg 65%
21:00 +19°C° 0 mm 3 mps 758 mmHg 70%
22:00 +18°C° 0 mm 3 mps 758 mmHg 75%
23:00 +18°C° 0 mm 3 mps 758 mmHg 77%

Day after tomorrow, 4 July, Saturday

Time Temperature Precipitation Wind Pressure Humidity
00:00 +17°C° 0 mm 3 mps 758 mmHg 79%
01:00 +17°C° 0 mm 3 mps 758 mmHg 81%
02:00 +17°C° 0 mm 3 mps 758 mmHg 81%
03:00 +17°C° 0 mm 3 mps 758 mmHg 81%
04:00 +17°C° 0 mm 3 mps 758 mmHg 81%
05:00 +17°C° 0 mm 4 mps 758 mmHg 77%
06:00 +18°C° 0 mm 4 mps 758 mmHg 72%
07:00 +19°C° 0 mm 5 mps 758 mmHg 68%
08:00 +20°C° 0 mm 5 mps 758 mmHg 65%
09:00 +20°C° 0 mm 5 mps 758 mmHg 61%
10:00 +21°C° 0 mm 5 mps 758 mmHg 58%
11:00 +21°C° 0 mm 5 mps 758 mmHg 59%
12:00 +21°C° 0 mm 5 mps 758 mmHg 61%
13:00 +21°C° 0 mm 5 mps 758 mmHg 62%
14:00 +21°C° 0 mm 5 mps 758 mmHg 63%
15:00 +21°C° 0 mm 4 mps 758 mmHg 64%
16:00 +21°C° 0 mm 4 mps 757 mmHg 64%
17:00 +21°C° 0 mm 4 mps 757 mmHg 65%
18:00 +21°C° 0 mm 4 mps 757 mmHg 66%
19:00 +22°C° 0 mm 3 mps 757 mmHg 67%
20:00 +21°C° 0 mm 3 mps 757 mmHg 70%
21:00 +20°C° 0 mm 3 mps 757 mmHg 74%
22:00 +19°C° 0 mm 3 mps 756 mmHg 77%
23:00 +19°C° 0.1 mm 4 mps 756 mmHg 78%

5 July, Sunday

Time Temperature Precipitation Wind Pressure Humidity
00:00 +19°C° 0.1 mm 4 mps 756 mmHg 79%
01:00 +19°C° 0.1 mm 5 mps 755 mmHg 79%
02:00 +17°C° 0.6 mm 5 mps 755 mmHg 83%
03:00 +17°C° 0.6 mm 5 mps 755 mmHg 86%
04:00 +17°C° 0.6 mm 5 mps 755 mmHg 90%
05:00 +17°C° 0.3 mm 5 mps 755 mmHg 90%
06:00 +17°C° 0.3 mm 5 mps 755 mmHg 90%
07:00 +17°C° 0.3 mm 5 mps 755 mmHg 90%
08:00 +19°C° 0.1 mm 5 mps 755 mmHg 89%
09:00 +19°C° 0.1 mm 5 mps 755 mmHg 88%
10:00 +20°C° 0.1 mm 5 mps 755 mmHg 86%
11:00 +21°C° 0.2 mm 5 mps 755 mmHg 79%
12:00 +22°C° 0.2 mm 6 mps 754 mmHg 72%
13:00 +23°C° 0.2 mm 6 mps 754 mmHg 65%
14:00 +24°C° 0.2 mm 6 mps 754 mmHg 64%
15:00 +24°C° 0.2 mm 6 mps 753 mmHg 62%
16:00 +26°C° 0.2 mm 7 mps 753 mmHg 60%
17:00 +24°C° 0.1 mm 6 mps 753 mmHg 65%
18:00 +23°C° 0.1 mm 5 mps 753 mmHg 70%
19:00 +22°C° 0.1 mm 5 mps 752 mmHg 75%
20:00 +22°C° 0.2 mm 5 mps 752 mmHg 77%
21:00 +21°C° 0.2 mm 5 mps 752 mmHg 78%
22:00 +21°C° 0.2 mm 6 mps 752 mmHg 80%
23:00 +20°C° 0.2 mm 5 mps 752 mmHg 81%

6 July, Monday

Time Temperature Precipitation Wind Pressure Humidity
00:00 +20°C° 0.2 mm 5 mps 752 mmHg 82%
01:00 +19°C° 0.2 mm 5 mps 752 mmHg 83%
02:00 +19°C° 0.1 mm 4 mps 752 mmHg 85%
03:00 +18°C° 0.1 mm 4 mps 752 mmHg 87%
04:00 +18°C° 0.1 mm 3 mps 752 mmHg 89%
05:00 +18°C° 0.1 mm 4 mps 752 mmHg 84%
06:00 +19°C° 0.1 mm 5 mps 752 mmHg 80%
07:00 +19°C° 0.1 mm 5 mps 752 mmHg 76%
08:00 +20°C° 0.1 mm 6 mps 752 mmHg 69%
09:00 +21°C° 0.1 mm 7 mps 752 mmHg 62%
10:00 +22°C° 0.1 mm 7 mps 753 mmHg 54%
11:00 +22°C° 0 mm 7 mps 753 mmHg 52%
12:00 +21°C° 0 mm 7 mps 753 mmHg 50%
13:00 +21°C° 0 mm 7 mps 753 mmHg 48%
14:00 +21°C° 0 mm 7 mps 753 mmHg 47%
15:00 +21°C° 0 mm 7 mps 753 mmHg 46%
16:00 +21°C° 0 mm 6 mps 754 mmHg 45%
17:00 +20°C° 0.2 mm 6 mps 754 mmHg 51%
18:00 +19°C° 0.2 mm 5 mps 755 mmHg 58%
19:00 +17°C° 0.2 mm 5 mps 755 mmHg 64%
20:00 +16°C° 0 mm 5 mps 755 mmHg 67%
21:00 +15°C° 0 mm 4 mps 756 mmHg 70%
22:00 +14°C° 0 mm 4 mps 756 mmHg 73%
23:00 +13°C° 0 mm 4 mps 757 mmHg 76%

7 July, Tuesday

Time Temperature Precipitation Wind Pressure Humidity
00:00 +13°C° 0 mm 4 mps 757 mmHg 78%
01:00 +12°C° 0 mm 4 mps 758 mmHg 81%
02:00 +12°C° 0 mm 4 mps 758 mmHg 83%
03:00 +12°C° 0 mm 4 mps 758 mmHg 85%
04:00 +11°C° 0 mm 4 mps 759 mmHg 87%
05:00 +12°C° 0 mm 4 mps 759 mmHg 81%
06:00 +13°C° 0 mm 5 mps 760 mmHg 74%
07:00 +14°C° 0 mm 5 mps 760 mmHg 67%
08:00 +15°C° 0 mm 5 mps 761 mmHg 61%
09:00 +16°C° 0 mm 5 mps 761 mmHg 55%
10:00 +17°C° 0 mm 6 mps 761 mmHg 49%
11:00 +17°C° 0 mm 6 mps 761 mmHg 48%
12:00 +17°C° 0 mm 5 mps 762 mmHg 47%
13:00 +19°C° 0 mm 5 mps 762 mmHg 46%
14:00 +19°C° 0 mm 5 mps 762 mmHg 47%
15:00 +19°C° 0 mm 4 mps 762 mmHg 48%
16:00 +19°C° 0 mm 4 mps 762 mmHg 48%
17:00 +18°C° 0 mm 4 mps 762 mmHg 51%
18:00 +18°C° 0 mm 3 mps 762 mmHg 55%
19:00 +17°C° 0 mm 3 mps 762 mmHg 58%
20:00 +16°C° 0 mm 3 mps 762 mmHg 63%
21:00 +15°C° 0 mm 2 mps 762 mmHg 68%
22:00 +13°C° 0 mm 2 mps 763 mmHg 73%
23:00 +13°C° 0 mm 2 mps 763 mmHg 76%
Show more